GW3707 Weather Reports


Display with metric or nautical units.
time (UTC)temp
F
wind
direction
speed
MPH
gust
MPH
rain 1hr
in
rain 24hr
in
rain mn
in
humidity
%
barometer
mb
20260506001538 87 140 3.0 10.0 0.00 0.00 0.00 71 1005.8
20260506000518 87 138 3.0 12.0 0.00 0.00 0.00 71 1005.7
20260505235517 87 137 3.0 10.0 0.00 0.00 0.00 71 1005.6
20260505234517 86 136 4.0 10.0 0.00 0.00 0.00 73 1005.6
20260505233518 87 139 4.0 12.0 0.00 0.00 0.00 71 1005.5
20260505232517 88 140 5.0 13.0 0.00 0.00 0.00 70 1005.4
20260505231517 89 130 3.0 10.0 0.00 0.00 0.00 69 1005.3
20260505230517 89 128 4.0 11.0 0.00 0.00 0.00 69 1005.3
20260505225538 91 124 4.0 10.0 0.00 0.00 0.00 66 1005.3
20260505224518 93 140 1.0 7.0 0.00 0.00 0.00 62 1005.2
20260505223517 93 160 0.0 5.0 0.00 0.00 0.00 57 1005.2
20260505222517 94 186 0.0 8.0 0.00 0.00 0.00 55 1005.0
20260505221517 95 135 1.0 6.0 0.00 0.00 0.00 54 1005.1
20260505220517 95 127 0.0 4.0 0.00 0.00 0.00 55 1005.0
20260505215517 95 151 0.0 5.0 0.00 0.00 0.00 56 1005.2
20260505214518 95 127 0.0 3.0 0.00 0.00 0.00 56 1005.3
20260505213517 95 132 0.0 6.0 0.00 0.00 0.00 56 1005.3
20260505212518 95 132 1.0 4.0 0.00 0.00 0.00 55 1005.3
20260505211517 96 113 0.0 6.0 0.00 0.00 0.00 55 1005.6
20260505210516 96 124 0.0 1.0 0.00 0.00 0.00 56 1005.7
20260505205517 94 110 0.0 4.0 0.00 0.00 0.00 59 1005.9
20260505204538 94 248 2.0 8.0 0.00 0.00 0.00 56 1005.8
20260505203537 94 192 1.0 7.0 0.00 0.00 0.00 56 1006.0
20260505202537 94 131 0.0 8.0 0.00 0.00 0.00 59 1006.2
20260505201518 94 120 0.0 3.0 0.00 0.00 0.00 59 1006.3
20260505200517 94 240 1.0 4.0 0.00 0.00 0.00 59 1006.3
20260505195517 93 272 0.0 7.0 0.00 0.00 0.00 60 1006.3
20260505194517 92 210 0.0 5.0 0.00 0.00 0.00 61 1006.4
20260505193537 92 238 1.0 8.0 0.00 0.00 0.00 60 1006.4
20260505192517 92 236 2.0 9.0 0.00 0.00 0.00 61 1006.6
20260505191517 92 239 1.0 6.0 0.00 0.00 0.00 60 1006.6
20260505190517 92 229 1.0 5.0 0.00 0.00 0.00 62 1006.7
20260505185517 91 293 1.0 8.0 0.00 0.00 0.00 64 1006.8
20260505184517 91 268 1.0 6.0 0.00 0.00 0.00 64 1006.9
20260505183517 90 260 1.0 6.0 0.00 0.00 0.00 66 1007.0
20260505182517 89 241 3.0 8.0 0.00 0.00 0.00 65 1007.0
20260505181517 88 265 1.0 8.0 0.00 0.00 0.00 67 1007.1
20260505180557 89 223 1.0 7.0 0.00 0.00 0.00 66 1007.1
20260505175517 88 261 2.0 7.0 0.00 0.00 0.00 69 1007.3
20260505174517 86 341 2.0 8.0 0.00 0.00 0.00 70 1007.2
20260505173517 85 49 1.0 8.0 0.00 0.00 0.00 71 1007.2
20260505172517 85 3 1.0 10.0 0.00 0.00 0.00 72 1007.2
20260505171517 84 135 2.0 11.0 0.00 0.00 0.00 71 1007.2
20260505170517 84 3 2.0 13.0 0.00 0.00 0.00 71 1007.3
20260505165517 85 103 1.0 7.0 0.00 0.00 0.00 71 1007.4
20260505164517 84 276 1.0 6.0 0.00 0.00 0.00 72 1007.3
20260505163517 84 26 1.0 7.0 0.00 0.00 0.00 73 1007.2
20260505162517 83 306 1.0 6.0 0.00 0.00 0.00 74 1007.2
20260505161517 82 307 1.0 8.0 0.00 0.00 0.00 76 1007.2
20260505160517 81 273 2.0 9.0 0.00 0.00 0.00 75 1007.2
20260505152517 80 233 2.0 12.0 0.00 0.00 0.00 78 1007.5
20260505151517 79 252 2.0 9.0 0.00 0.00 0.00 78 1007.5
20260505150517 78 164 1.0 8.0 0.00 0.00 0.00 81 1007.5
20260505140537 74 6 1.0 5.0 0.00 0.00 0.00 87 1007.1
20260505124517 70 180 0.0 1.0 0.00 0.00 0.00 94 1006.9
20260505123517 69 134 1.0 3.0 0.00 0.00 0.00 95 1006.8
20260505122537 68 142 1.0 4.0 0.00 0.00 0.00 96 1006.6
20260505121517 68 148 1.0 5.0 0.00 0.00 0.00 96 1006.5
20260505120517 68 143 1.0 5.0 0.00 0.00 0.00 96 1006.5
20260505115517 68 166 0.0 4.0 0.00 0.00 0.00 96 1006.4
20260505114557 67 148 1.0 5.0 0.00 0.00 0.00 96 1006.2
20260505113516 67 141 1.0 3.0 0.00 0.00 0.00 96 1006.3
20260505112537 67 127 0.0 2.0 0.00 0.00 0.00 96 1006.1
20260505111517 67 124 1.0 5.0 0.00 0.00 0.00 96 1006.1
20260505110537 67 0.0 2.0 0.00 0.00 0.00 95 1006.2
20260505101516 68 123 1.0 3.0 0.00 0.00 0.00 95 1006.0
20260505100517 68 134 1.0 9.0 0.00 0.00 0.00 95 1006.2
20260505095517 68 138 2.0 6.0 0.00 0.00 0.00 94 1006.1
20260505094516 68 149 2.0 8.0 0.00 0.00 0.00 94 1006.3
20260505093517 68 142 1.0 5.0 0.00 0.00 0.00 94 1006.3
20260505092517 68 135 2.0 6.0 0.00 0.00 0.00 94 1006.4
20260505091516 69 135 1.0 10.0 0.00 0.00 0.00 93 1006.5
20260505090517 69 133 2.0 9.0 0.00 0.00 0.00 93 1006.5
20260505085516 69 116 2.0 7.0 0.00 0.00 0.00 93 1006.6
20260505084517 69 158 1.0 9.0 0.00 0.00 0.00 93 1006.6
20260505083516 69 122 2.0 7.0 0.00 0.00 0.00 92 1006.5
20260505082517 69 113 3.0 12.0 0.00 0.00 0.00 92 1006.5
20260505081537 69 129 3.0 10.0 0.00 0.00 0.00 92 1006.6
20260505080516 70 153 4.0 12.0 0.00 0.00 0.00 92 1006.7
20260505075516 70 142 5.0 11.0 0.00 0.00 0.00 91 1006.7
20260505074516 70 133 4.0 10.0 0.00 0.00 0.00 91 1006.9
20260505073516 70 147 4.0 12.0 0.00 0.00 0.00 91 1007.0
20260505072617 70 140 4.0 12.0 0.00 0.00 0.00 90 1007.1
20260505071517 70 125 3.0 9.0 0.00 0.00 0.00 90 1007.3
20260505070516 70 144 3.0 10.0 0.00 0.00 0.00 90 1007.5
20260505065537 70 151 3.0 11.0 0.00 0.00 0.00 89 1007.6
20260505064516 71 139 2.0 10.0 0.00 0.00 0.00 88 1007.7
20260505063516 71 148 2.0 7.0 0.00 0.00 0.00 88 1007.9
20260505062516 71 149 3.0 7.0 0.00 0.00 0.00 87 1007.9
20260505061536 71 117 2.0 11.0 0.00 0.00 0.00 87 1008.0
20260505060536 71 222 1.0 10.0 0.00 0.00 0.00 86 1008.1
20260505055516 71 143 3.0 9.0 0.00 0.00 0.00 85 1007.9
20260505054516 72 149 3.0 11.0 0.00 0.00 0.00 85 1007.8
20260505053516 72 142 4.0 12.0 0.00 0.00 0.00 84 1007.8
20260505052516 72 141 4.0 14.0 0.00 0.00 0.00 84 1007.9
20260505051516 72 138 3.0 12.0 0.00 0.00 0.00 83 1008.0
20260505050516 72 122 2.0 11.0 0.00 0.00 0.00 83 1008.1
20260505041516 73 148 3.0 10.0 0.00 0.00 0.00 81 1008.1
20260505040516 73 141 3.0 9.0 0.00 0.00 0.00 81 1008.4
20260505035517 73 145 3.0 8.0 0.00 0.00 0.00 80 1008.2
20260505034516 74 136 3.0 11.0 0.00 0.00 0.00 80 1008.1
20260505033516 74 145 4.0 14.0 0.00 0.00 0.00 79 1008.0
20260505032516 74 157 4.0 9.0 0.00 0.00 0.00 79 1008.0
20260505031516 74 136 4.0 11.0 0.00 0.00 0.00 79 1007.9
20260505030516 74 132 3.0 11.0 0.00 0.00 0.00 78 1008.1
20260505025516 75 143 3.0 10.0 0.00 0.00 0.00 78 1008.1
20260505024516 75 143 4.0 11.0 0.00 0.00 0.00 78 1007.8
20260505023516 75 133 4.0 9.0 0.00 0.00 0.00 78 1008.0
20260505022516 75 146 4.0 10.0 0.00 0.00 0.00 77 1007.9
20260505021516 75 138 4.0 11.0 0.00 0.00 0.00 77 1007.7
20260505020516 75 141 4.0 11.0 0.00 0.00 0.00 77 1007.7
20260505015516 75 145 3.0 12.0 0.00 0.00 0.00 77 1007.5
20260505014516 75 147 3.0 11.0 0.00 0.00 0.00 77 1007.7
20260505013516 75 151 4.0 10.0 0.00 0.00 0.00 77 1007.6
20260505012516 75 141 3.0 8.0 0.00 0.00 0.00 76 1007.7
20260505011536 76 133 3.0 10.0 0.00 0.00 0.00 76 1007.5
20260505010516 76 148 3.0 8.0 0.00 0.00 0.00 75 1007.5
20260505005516 76 138 4.0 11.0 0.00 0.00 0.00 74 1007.5
20260505004516 77 139 3.0 8.0 0.00 0.00 0.00 74 1007.7
20260505003516 77 140 4.0 12.0 0.00 0.00 0.00 73 1007.7
20260505002536 78 149 5.0 13.0 0.00 0.00 0.00 72 1007.9